Hourly Data Report for April 01, 2018

CLYDE RIVER A
NUNAVUT
Current Station Operator: NAVCAN

70°29'09.000" N
68°31'01.000" W
26.50 m
2400804
71090
YCY

Download Data

Hourly Data (April 2018)
Hourly Data Report for April 1, 2018
TIME
LST
Temp Definition
°C
Dew Point Definition
°C
Rel Hum Definition
%
Precip. Amount Definition
mm

Wind Dir Definition
10's deg

Wind Spd Definition
km/h
Visibility Definition
km
Stn Press Definition
kPa
Hmdx Definition


Wind Chill Definition


Weather Definition


00:00 -15.7 -17.7 85 0.0 33 35 3.6 101.32   -28 Snow
01:00 -15.8 -17.8 85 0.0 33 45 2.8 101.27   -29 Snow,Blowing Snow
02:00 -16.2 -18.2 85 0.0 32 37 2.0 101.27   -29 Snow,Blowing Snow
03:00 -15.9 -17.9 85 0.0 33 41 2.4 101.26   -29 Snow,Blowing Snow
04:00 -15.7 -17.7 85 0.0 32 39 4.8 101.24   -28 Snow
05:00 -15.7 -17.7 85 0.0 33 39 1.2 101.23   -28 Snow
06:00 -15.4 -17.4 85 0.0 33 41 2.0 101.25   -28 Snow,Blowing Snow
07:00 -14.9 -16.9 85 0.0 32 45 1.2 101.25   -28 Snow,Blowing Snow
08:00 -14.1 -16.3 84 0.0 32 43 1.2 101.25   -27 Snow,Blowing Snow
09:00 -13.9 -16.2 83 0.0 32 43 1.6 101.28   -26 Snow,Blowing Snow
10:00 -14.1 -16.4 83 0.0 32 41 4.8 101.27   -26 Snow
11:00 -14.0 -16.2 84 0.0 32 39 1.2 101.30   -26 Snow
12:00 -13.5 -15.5 85 0.0 32 41 1.2 101.32   -26 Snow,Blowing Snow
13:00 -13.4 -15.6 84 0.0 33 35 2.8 101.36   -25 Snow
14:00 -13.2 -15.5 83 0.0 32 35 4.8 101.39   -24 Snow
15:00 -13.1 -15.3 84 0.0 33 34 14.5 101.42   -24 Snow
16:00 -13.1 -15.5 83 0.0 33 30 16.1 101.46   -24 Snow
17:00 -13.3 -15.5 84 0.0 32 32 16.1 101.51   -24 Snow
18:00 -13.4 -15.6 84 0.0 33 26 16.1 101.58   -23 Snow
19:00 -13.6 -15.6 85 0.0 33 28 16.1 101.62   -24 LegendNANA
20:00 -13.7 -15.7 85 0.0 33 24 16.1 101.67   -23 LegendNANA
21:00 -13.7 -15.7 85 0.0 32 22 16.1 101.70   -23 LegendNANA
22:00 -13.8 -15.8 85 0.0 33 24 16.1 101.75   -23 LegendNANA
23:00 -13.6 -15.8 84 0.0 33 24 16.1 101.78   -23 Snow

Notes on Data Quality.

Legend

  • E = Estimated
  • M = Missing
  • NA = Not Available*
  • [empty] = Indicates an unobserved value
Date modified: